Weather observations for the past three days for
Cocoa - Patrick Air Force Base
Metric (Imperial)
Date Time (edt) Wind (kph) Vis. (km) Weather Sky Cond. Temperature (ºC) Relative Humidity Wind Chill (°C) Heat Index (°C) Pressure Precipitation (cm)
Air Dwpt 6 hour altimeter (cm) sea level (mb) 1 hr 3 hr 6 hr
Max. Min.
07 16:55 S 19 G 28 16.09 Fair CLR 32 22 55% 36 75.9 0.0
07 15:57 SE 19 16.09 Fair CLR 30 21 59% 33 75.92 0.0
07 15:55 Calm 16.09 Fair CLR 30 0 0% 75.92 1012.6
07 14:56 SE 19 16.09 Partly Cloudy SCT110 29.2 22.9 69% 33 76 1013.6
07 14:55 Calm 0.00 Fair CLR 29.2 22.9 69% 33 76 1013.6
07 13:56 SE 19 G 28 16.09 Partly Cloudy FEW170 SCT190 33 19 31.5 24.2 44% 35 76.07 0.0
07 13:55 Calm 0.00 Partly Cloudy FEW170 SCT200 0 0 31.5 24.1 0% 76.07 0.0
07 12:57 SE 13 16.09 A Few Clouds FEW200 30 22 62% 33 76.1 0.0
07 12:55 Calm 16.09 A Few Clouds FEW200 29.5 22.2 65% 33 76.1 1015.0
07 11:55 SW 9 16.09 Fair CLR 30.1 20.3 56% 32 76.12 1015.3
07 10:55 SW 13 16.09 Fair CLR 29.4 20.5 59% 32 76.15 1015.7
07 09:55 SW 13 16.09 Fair CLR 28.1 20.1 62% 30 76.17 1016.0
07 08:55 SW 13 16.09 Fair CLR 25.6 19.9 71% 27 76.17 1016.0
07 07:57 SW 9 16.09 Fair CLR 24.1 20.5 24.2 21.6 80% 24 76.15 1015.7
07 07:55 Calm 0.00 Fair CLR 24 20.5 24.2 21.6 81% 24 76.15 1015.7
07 06:55 SW 13 16.09 Fair CLR 22 0 0% 76.12 1015.3
07 05:55 SW 13 16.09 Fair CLR 21.7 19.4 87% 76.07 0.0
07 04:55 SW 9 16.09 Fair CLR 22.7 19.8 84% 76.05 1014.3
07 03:55 SW 9 16.09 Fair CLR 22.8 19.7 83% 76.02 0.0
07 02:55 S 9 16.09 Fair CLR 22.6 19.7 84% 76.07 1014.7
07 01:55 SW 11 16.09 Fair CLR 23.8 20.3 26.4 23.8 81% 76.12 1015.3
07 00:55 SE 19 16.09 Fair CLR 25.4 20.6 75% 27 76.12 1015.3
06 23:55 SE 15 16.09 Fair CLR 25.9 20.4 72% 27 76.12 1015.3
06 22:55 SE 20 16.09 Fair CLR 25.9 20.9 74% 27 76.12 1015.3
06 21:55 SE 22 16.09 Fair CLR 26.2 20.5 71% 28 76.15 1015.7
06 20:55 SE 17 16.09 Fair CLR 26.1 19.9 69% 27 76.12 1015.3
06 19:55 SE 22 16.09 Fair CLR 26.5 19.1 28.9 26.5 64% 28 76.1 1015.0
06 18:55 SE 20 16.09 Fair CLR 28 20 62% 30 76.12 1015.3
06 17:55 SE 24 16.09 A Few Clouds FEW130 28 22 70% 31 76.12 0.0
06 16:55 E 22 16.09 Fair CLR 0 0 0% 76.15 0.0
06 15:55 SE 19 16.09 A Few Clouds FEW140 29 22 66% 32 76.15 0.0
06 14:55 SE 22 16.09 Fair CLR 29 22 66% 32 76.2 1016.3
06 13:55 SE 20 16.09 Partly Cloudy FEW120 FEW140 SCT180 28 22 28.8 24.8 70% 31 0 0.0
06 13:03 SE 17 16.09 A Few Clouds FEW190 28.5 22 68% 31 76.25 1017.0
06 12:55 Calm 0.00 A Few Clouds FEW190 28.5 22 68% 31 76.25 1017.0
06 11:55 SE 17 16.09 Fair CLR 27.9 22.1 71% 31 76.28 1017.4
06 10:55 SE 15 16.09 Fair CLR 27.9 21.6 69% 30 76.25 1017.0
06 09:55 SE 17 16.09 Fair CLR 27.2 21.7 72% 29 76.23 1016.7
06 08:55 SE 15 16.09 Fair CLR 26.5 21.5 74% 28 76.2 1016.3
06 07:55 S 7 16.09 Fair CLR 24.7 21 24.7 23.3 80% 25 76.17 1016.0
06 06:55 S 6 16.09 Fair CLR 24.3 20.6 80% 25 76.15 1015.7
06 05:55 S 6 16.09 Fair CLR 24.2 20.5 80% 25 76.1 0.0
06 04:55 SE 9 16.09 Fair CLR 24.2 20.5 80% 25 76.1 1015.0
06 03:55 SE 13 16.09 Fair CLR 24.4 19.7 75% 25 76.1 0.0
06 02:55 SE 13 16.09 Fair CLR 24.4 19.4 74% 25 76.12 0.0
06 01:55 SE 15 16.09 Fair CLR 24.6 18.5 25 24.3 69% 26 76.15 1015.7
06 00:55 SE 13 16.09 Fair CLR 24.6 17.6 65% 26 76.17 1016.0
05 23:55 E 13 16.09 Fair CLR 24.8 18.2 67% 26 76.17 1016.0
05 22:55 E 17 16.09 Fair CLR 24.7 18.1 67% 26 76.17 1016.0
05 21:55 E 15 16.09 Fair CLR 24.7 17.7 65% 26 76.15 1015.7
05 20:55 E 13 16.09 Fair CLR 24.7 15.9 58% 26 76.1 1015.0
05 19:55 E 15 16.09 Fair CLR 24.9 16.8 27.5 24.8 61% 26 76.1 1015.0
05 18:55 E 19 16.09 Fair CLR 25.7 16.2 56% 27 76.1 1015.0
05 17:55 E 17 16.09 Fair CLR 0 0 0% 76.1 0.0
05 16:55 E 19 16.09 Fair CLR 26.7 16.3 53% 27 76.1 1015.0
05 15:55 E 19 16.09 Fair CLR 0 0 0% 0 0.0
05 14:55 E 20 16.09 Fair CLR 27 0 0% 76.15 1015.7
05 13:55 E 19 16.09 Partly Cloudy FEW110 FEW150 SCT180 SCT200 28 0 27.7 24.5 0% 76.2 1016.3
05 12:55 E 20 16.09 Partly Cloudy FEW160 SCT200 27 0 0% 0 0.0
05 11:55 E 17 16.09 Fair CLR 27.4 16.9 53% 28 76.2 1016.3
05 10:55 E 20 16.09 Fair CLR 26.8 17.3 56% 28 76.17 1016.0
05 09:55 E 19 16.09 Fair CLR 26.2 17.8 60% 27 76.17 1016.0
05 08:55 SE 20 16.09 Fair CLR 25.5 17.7 62% 26 76.15 1015.7
05 07:55 E 17 16.09 Fair CLR 24.5 17.5 24.5 23.2 65% 26 76.12 1015.3
05 06:55 E 20 16.09 Fair CLR 23.4 17.1 68% 76.07 1014.7
05 05:55 E 11 16.09 Fair CLR 23.3 17.3 69% 76.02 1014.0
05 04:55 E 11 16.09 Fair CLR 23.3 17.3 69% 76.02 1014.0
05 03:55 E 13 16.09 Fair CLR 23.3 17 68% 76.02 1014.0
05 02:55 E 19 16.09 A Few Clouds FEW029 23.8 17.7 69% 76.02 1014.0
05 01:55 E 22 16.09 A Few Clouds FEW029 FEW037 23.4 17.8 24 23.3 71% 76.07 1014.7
05 00:55 E 22 16.09 Fair CLR 23.4 17.8 71% 76.1 1015.0
04 23:55 E 24 16.09 Fair CLR 23.9 18.3 71% 25 76.15 1015.7
04 22:55 E 24 16.09 Fair CLR 23.4 17.4 69% 76.15 1015.7
04 21:55 E 19 16.09 Fair CLR 23.3 17 68% 76.15 1015.7
04 20:55 E 20 16.09 Fair CLR 23.4 16.7 66% 76.12 1015.3
04 19:55 E 22 16.09 Partly Cloudy FEW037 SCT050 23.8 16.6 26.6 23.7 64% 76.1 1015.0
04 18:55 E 20 16.09 Fair CLR 24.6 16.8 62% 26 76.07 1014.7
Date Time (edt) Wind (kph) Vis. (km) Weather Sky Cond. Air Dwpt Max. Min. Relative Humidity Wind Chill (°C) Heat Index (°C) altimeter (cm) sea level (mb) 1 hr 3 hr 6 hr
6 hour
Temperature (ºC) Pressure Precipitation (cm)